Probability
0 0 0 0 0 0 0 0 0 0 0 0 0 0 0 0 0 0 0 0 0 0 0 0 0 0 0 0 0 0 0 0 0 0 0 0 0 0 0 0 0 0 0
0 0 0 0 0 0 0 0 0 0 0 0 0 0 0 0 0 0 0 0 0 0 0 0 0 0 0 0 0 0 0 0 0 0 0 0 0 0 0 0 0 0 0
0 0 0 0 0 0 0 0 0 0 0 0 0 0 0 0 0 0 0 0 0 0 0 0 0 0 0 0 0 0 0 0 0 0 0 0 0 0 0 0 0 0 0
0 0 0 0 0 0 0 0 0 0 0 0 0 0 0 0 0 0 0 0 0 0 0 0 0 0 0 0 0 0 0 0 0 0 0 0 0 0 0 0 0 0 0
0 0 0 0 0 0 0 0 0 0 0 0 0 0 0 0 0 0 0 0 0 0 0 0 0 0 0 0 0 0 0 0 0 0 0 0 0 0 0 0 0 0 0
0 0 0 0 0 0 0 0 0 0 0 0 0 0 0 0 0 0 0 0 0 0 0 0 0 0 0 0 0 0 0 0 0 0 0 0 0 0 0 0 0 0 0
0 0 0 0 0 0 0 0 0 0 0 0 0 0 0 0 0 0 0 0 0 0 0 0 0 0 0 0 0 0 0 0 0 0 0 0 2 2 1 0 0 0 0
0 0 0 0 0 0 0 0 0 0 0 0 0 0 0 0 0 0 0 0 0 0 0 0 0 0 0 0 0 0 0 0 0 0 0 3 13 20 14 5 1 0 0
2 1 0 0 0 0 0 0 0 0 0 0 0 0 0 0 0 0 0 0 0 0 0 0 0 0 1 1 2 1 1 1 0 0 0 11 38 55 44 23 8 1 0
11 9 4 1 1 1 0 1 3 4 3 2 1 0 0 0 1 6 9 8 5 5 7 9 8 6 7 9 12 14 12 6 1 0 1 21 62 84 75 49 22 6 1
16 17 13 14 15 7 6 16 20 17 16 11 8 13 13 6 3 15 30 33 30 30 34 38 35 30 26 23 30 41 38 19 4 1 7 35 75 96 90 68 38 14 4
10 14 21 38 42 22 24 49 47 36 41 37 28 39 45 31 16 26 53 67 64 66 71 74 69 64 54 39 39 56 56 30 8 4 19 52 84 98 94 75 46 21 7
9 9 19 49 63 46 52 77 73 63 72 72 62 68 77 69 51 51 73 87 87 89 92 91 88 83 71 47 35 51 59 39 23 21 36 64 87 95 90 72 48 24 9
31 20 23 54 77 73 74 88 90 88 93 94 89 89 93 93 86 83 89 95 95 96 96 93 90 87 76 54 41 49 57 50 45 49 55 68 80 84 79 67 48 25 10
67 52 53 75 91 92 88 91 96 98 99 99 99 99 98 99 98 97 96 96 96 94 92 88 85 83 77 64 50 49 52 52 56 62 66 70 75 74 70 65 51 29 15
92 86 86 94 99 99 96 95 96 98 99 99 99 99 99 100 99 98 96 93 91 88 82 79 78 76 72 63 50 43 45 49 52 56 62 68 73 72 68 64 55 38 25
100 99 99 100 100 100 100 99 98 98 99 100 99 98 98 98 99 99 97 92 87 82 78 74 74 72 68 61 51 47 52 54 52 50 54 60 65 67 64 60 53 43 36
100 100 100 100 100 100 100 99 98 98 98 97 96 95 92 88 87 89 88 82 75 72 70 67 69 72 70 65 60 59 64 64 57 50 50 54 55 54 54 52 48 44 40
100 100 100 100 100 99 98 95 93 93 89 83 82 86 79 65 61 63 61 56 50 48 46 46 53 59 58 54 48 51 61 69 64 56 52 52 49 47 44 43 44 43 40
99 99 99 99 98 96 95 91 87 84 73 58 62 70 56 37 32 32 27 25 22 20 19 22 27 30 31 28 22 27 43 57 63 62 57 54 52 47 41 38 39 41 40
94 96 97 98 96 93 92 90 85 76 55 37 46 55 39 20 14 11 7 6 6 5 5 7 7 8 9 9 7 11 21 34 45 54 57 61 61 55 47 41 41 44 47
83 85 88 92 91 88 87 82 77 67 42 28 42 57 47 26 14 6 3 2 1 0 1 1 1 1 2 3 4 4 6 12 21 32 47 61 70 70 62 53 50 52 54
58 64 74 85 86 85 82 70 65 61 40 30 49 70 68 49 28 15 8 4 1 1 0 0 0 1 2 2 2 2 1 3 6 13 27 45 66 79 75 65 57 55 53
34 47 67 80 85 87 84 74 71 69 54 50 66 82 81 62 41 26 16 8 4 2 1 0 0 1 1 2 2 1 1 1 1 3 9 22 45 68 78 72 62 55 52
27 42 63 76 83 88 91 88 86 82 75 75 83 88 83 69 52 40 30 19 9 3 1 0 0 0 1 2 1 0 0 1 1 0 1 6 20 44 65 72 69 64 60
26 40 60 72 78 86 93 94 92 89 86 87 89 90 86 75 62 52 43 29 14 4 1 1 1 1 2 2 1 0 0 0 1 0 0 1 7 26 52 69 73 72 71
Wind_Speed
18 18 18 15 13 12 13 15 15 14 13 12 11 10 9 9 9 9 9 9 11 11 11 10 9 9 9 8 8 8 8 8 8 9 10 11 10 9 8 7 6 11 13
21 19 18 15 13 13 13 15 15 14 13 12 11 10 9 9 8 8 8 8 10 10 9 9 9 8 8 8 7 7 6 6 5 6 8 10 10 8 6 6 6 9 11
20 18 17 15 14 13 13 14 14 14 13 12 11 10 9 9 8 7 7 7 8 8 7 7 7 7 7 7 6 5 5 3 2 3 6 7 9 9 6 7 10 11 9
20 17 16 16 14 14 14 13 14 14 13 12 11 10 10 9 8 7 7 7 7 6 6 5 5 6 6 5 4 3 3 2 3 5 6 4 8 12 9 6 6 7 7
18 16 17 18 16 14 14 13 13 13 13 12 11 10 10 9 8 7 6 6 6 6 5 5 4 4 4 4 4 3 2 3 5 8 8 3 6 13 11 8 6 5 6
18 17 18 18 16 15 14 13 12 12 12 11 11 10 9 9 8 7 6 6 5 5 5 5 5 5 4 4 4 4 4 5 7 8 7 3 9 13 13 10 7 7 6
18 18 18 17 16 15 14 13 12 11 11 10 10 10 9 8 8 7 7 7 7 7 7 7 7 7 7 7 7 7 7 8 8 8 7 3 9 15 14 11 9 8 8
19 18 17 17 16 14 14 13 13 12 11 11 10 10 10 9 9 8 8 8 8 8 8 8 8 8 9 9 9 10 10 11 10 10 9 4 14 17 16 14 11 10 10
20 19 16 15 14 15 14 14 13 13 12 12 11 11 11 11 10 10 10 10 10 10 10 10 10 10 10 10 11 11 12 13 10 8 10 4 15 18 17 15 14 12 12
19 19 16 15 14 13 12 14 14 13 13 12 12 12 12 12 12 13 13 13 14 13 13 13 13 13 12 12 13 13 14 13 11 11 9 6 17 18 17 16 15 14 12
16 17 16 17 14 13 13 15 14 13 13 12 12 14 12 10 12 13 17 17 18 17 16 15 15 14 14 14 16 17 14 9 11 10 9 9 18 19 17 16 15 14 13
12 16 13 16 15 14 12 12 10 10 11 11 10 12 10 9 8 11 12 20 20 19 18 17 16 15 13 10 14 19 9 12 11 8 6 13 18 19 17 16 14 13 13
12 9 11 13 14 11 7 10 8 7 8 11 12 9 7 7 6 7 2 7 11 14 11 11 12 10 9 8 7 6 10 9 5 4 3 12 15 16 16 15 14 14 14
14 11 11 8 8 4 3 5 5 4 4 6 8 9 7 4 4 4 2 2 4 5 6 5 5 8 8 8 7 4 6 6 4 3 4 11 13 14 15 15 15 15 15
14 12 10 9 7 5 2 1 2 2 2 3 4 5 5 3 3 3 2 2 3 3 2 3 3 3 3 3 4 5 5 6 4 3 3 11 14 15 15 15 16 17 17
13 11 10 10 9 6 4 2 1 2 0 1 1 0 2 1 1 2 3 3 3 3 3 3 3 3 3 3 5 6 7 7 5 5 4 6 13 16 16 16 16 17 18
12 11 11 10 11 8 6 4 3 3 2 1 1 1 1 2 2 3 3 3 3 3 4 4 5 4 5 6 7 8 8 8 8 7 7 6 7 12 16 17 18 18 19
13 12 10 10 11 10 6 3 3 3 2 2 2 2 2 2 3 3 3 3 3 4 4 5 5 4 5 5 6 6 7 7 10 10 9 8 7 8 12 19 20 20 20
12 11 9 7 9 9 7 5 5 3 2 2 3 3 3 1 2 1 2 2 2 3 3 5 2 3 4 4 5 7 8 8 8 11 11 11 10 9 8 11 19 20 21
10 11 9 7 7 7 6 4 2 2 3 3 3 4 4 0 2 3 3 2 3 3 3 3 4 3 4 5 8 8 6 7 8 9 10 10 10 12 11 11 9 13 21
8 9 8 7 6 4 3 3 2 2 1 1 2 5 3 1 1 1 3 3 3 3 3 4 4 5 5 5 5 6 7 9 9 8 9 9 10 11 11 11 9 7 8
6 6 7 7 6 4 4 3 2 1 1 1 1 4 4 3 1 2 2 2 4 4 5 5 4 3 5 5 5 6 6 6 6 9 8 9 10 8 10 12 10 9 7
9 4 4 5 5 3 5 3 3 2 2 3 3 3 4 4 2 1 1 2 3 4 4 4 4 5 4 5 4 4 5 5 6 5 5 5 7 7 7 6 8 8 9
7 7 6 4 2 1 1 2 2 3 3 2 1 2 4 4 3 3 3 2 2 3 5 5 4 3 5 5 4 4 6 7 6 6 7 6 6 6 7 6 5 6 6
8 9 10 9 7 6 5 5 5 5 4 2 1 2 3 4 5 5 5 3 2 4 5 4 4 5 4 5 5 5 6 6 7 6 8 7 6 4 4 4 3 2 2
12 12 13 13 12 11 9 8 6 7 6 6 6 4 3 3 5 7 6 4 3 3 4 4 5 6 5 6 5 5 6 5 5 5 6 6 6 6 3 1 1 2 3
Wind_Direction
123 130 132 126 121 120 126 135 138 136 133 132 130 123 113 103 98 97 96 96 109 113 109 103 98 94 89 92 95 90 86 83 85 90 95 98 99 99 100 104 122 105 106
124 129 130 127 125 124 128 135 139 138 137 136 133 127 120 113 108 104 102 100 106 111 110 106 102 99 96 98 101 100 97 98 108 118 123 118 112 106 99 70 54 111 117
123 131 131 129 128 127 130 136 140 139 139 139 138 134 129 126 123 119 114 110 109 110 109 107 106 104 103 104 108 112 114 121 154 176 180 157 130 124 106 82 91 110 116
128 138 136 135 135 133 134 138 142 143 144 145 145 143 140 139 139 136 128 124 122 119 116 114 113 113 114 116 120 122 135 172 237 251 239 200 146 135 130 116 116 124 130
132 137 135 144 142 141 140 143 147 149 150 152 153 152 152 153 156 157 151 145 142 139 137 136 132 129 131 136 145 160 195 236 260 265 266 235 136 144 142 143 149 153 155
134 136 144 150 149 149 149 150 153 156 158 160 161 163 164 166 170 175 175 173 171 167 167 169 171 169 170 175 187 203 222 244 264 261 259 203 140 152 151 158 171 178 181
140 137 147 153 155 157 157 158 161 164 167 169 171 173 176 180 186 192 196 197 197 197 197 198 200 199 198 201 209 219 230 243 254 274 282 223 147 154 160 168 184 196 197
137 136 145 155 160 164 166 167 170 173 177 180 183 186 189 194 202 210 214 214 215 216 215 215 217 218 216 215 217 223 230 244 248 249 256 223 155 161 168 175 188 205 212
138 137 150 159 166 171 174 177 180 182 186 190 195 200 205 209 213 219 223 224 225 227 227 227 227 228 229 229 229 230 233 237 255 270 267 227 165 170 173 180 189 204 219
138 142 156 163 166 174 180 186 188 191 194 199 204 209 215 220 225 229 229 225 226 225 225 227 229 231 231 233 235 234 234 238 242 251 255 230 173 177 179 184 193 203 216
143 148 164 165 166 178 183 182 187 195 200 203 211 217 221 227 227 223 225 224 220 221 221 223 227 230 232 235 235 234 231 232 236 238 241 216 178 180 185 190 198 206 215
161 160 166 164 166 185 190 165 183 194 195 205 213 207 209 223 241 247 217 213 217 219 222 223 225 228 231 238 235 227 223 227 241 246 234 186 178 182 187 192 201 209 216
171 177 162 163 167 184 171 158 185 194 188 195 216 216 207 221 235 254 242 200 212 221 224 225 225 227 230 234 251 225 210 225 228 244 214 175 179 185 190 195 204 214 220
167 179 171 159 147 165 163 167 175 187 179 185 198 210 208 214 239 260 278 242 211 215 215 230 225 218 227 242 249 248 221 231 227 209 184 179 185 197 201 202 208 216 222
161 174 171 139 126 132 127 306 207 196 203 206 189 201 205 211 236 267 281 287 281 279 246 220 245 251 249 276 284 277 271 265 270 258 202 193 193 203 213 214 215 220 223
158 166 145 136 135 143 153 184 309 317 269 265 96 122 147 184 227 257 265 264 270 289 306 295 272 257 260 262 265 263 259 259 255 247 243 223 214 210 215 220 223 225 224
158 154 141 153 152 158 168 181 191 232 224 180 137 182 169 198 218 239 252 253 252 259 263 262 256 241 239 239 240 240 242 243 240 237 233 233 230 221 222 224 227 225 222
160 153 155 168 158 152 156 176 226 225 167 166 186 180 189 219 217 232 248 252 245 247 243 245 243 246 244 244 244 243 240 236 237 236 233 230 229 233 223 223 226 226 222
155 148 147 137 135 147 162 183 213 195 161 206 197 149 131 223 209 211 271 267 254 267 266 271 267 241 257 258 256 244 235 235 236 238 234 234 231 229 229 227 224 223 224
138 133 132 137 137 151 167 176 200 166 186 200 156 130 123 222 68 49 311 356 354 312 294 304 326 302 278 267 271 270 251 240 235 234 235 235 231 228 227 231 224 224 224
103 119 130 149 138 153 150 156 160 151 167 153 138 124 123 151 76 44 293 355 317 296 322 325 313 303 295 283 279 275 259 246 239 231 227 230 230 225 223 221 220 220 216
74 103 118 128 141 167 127 111 113 98 241 230 113 140 167 184 173 274 23 339 319 331 306 284 289 293 297 301 301 297 287 274 257 249 226 221 225 223 223 223 216 214 218
18 38 113 117 135 161 135 171 178 161 225 229 193 186 176 174 183 218 315 296 315 303 299 326 303 285 289 295 288 289 296 294 314 294 282 247 222 218 222 223 216 215 218
12 350 35 59 101 93 155 271 265 235 235 244 209 191 157 169 196 199 212 247 286 295 296 289 308 320 298 292 291 277 273 288 294 301 305 301 276 236 221 219 220 215 208
29 24 25 23 26 17 351 324 311 295 289 286 267 167 163 199 206 203 198 197 241 269 283 305 309 297 290 286 290 293 290 287 268 267 283 293 299 282 240 212 205 188 166
33 31 28 25 23 13 1 341 319 307 310 313 311 298 247 223 207 198 185 174 218 262 290 296 289 285 279 281 281 280 280 281 283 277 274 281 283 284 275 215 183 139 110